Newport News, VA

1:28 PM EST on November 20, 2017 (GMT -0500)
Newport News-Williamsburg International

Weather History for KPHF - March, 2013

Change the Weather History Date:

Monday, March 11, 2013

  Actual Average Record
Temperature  
Mean Temperature 52 °F -  
Max Temperature 71 °F 58 °F 80 °F (2009)
Min Temperature 35 °F 39 °F 23 °F (1960)
Degree Days  
Heating Degree Days 13    
Growing Degree Days 2 (Base 50)    
Moisture  
Dew Point 40 °F    
Average Humidity 73    
Maximum Humidity 93    
Minimum Humidity 44    
Precipitation  
Precipitation 0.00 in - - ()
Sea Level Pressure  
Sea Level Pressure 30.17 in    
Wind  
Wind Speed 3 mph (SSE)    
Max Wind Speed 15 mph    
Max Gust Speed 23 mph    
Visibility 6 miles    
Events Fog    
Averages and records for this station are not official NWS values.
T = Trace of Precipitation, MM = Missing Value Source: NWS Daily Summary

Daily Weather History Graph

Daily Weather History Graph

Search for Another Location

Airport or City:

Trip Planner

Search our weather history database for the weather conditions in past years. The results will help you decide how hot, cold, wet, or windy it might be!

Date:

Astronomy

Mar. 11, 2013 Rise Set
Actual Time 7:22 AM EDT 7:09 PM EDT
Civil Twilight 6:56 AM EDT 7:35 PM EDT
Nautical Twilight 6:26 AM EDT 8:05 PM EDT
Astronomical Twilight 5:56 AM EDT 8:36 PM EDT
Moon 6:55 AM EDT (3/11) 7:18 PM EDT (3/11)
Length of Visible Light 12h 39m
Length of Day
11h 47m
Waning Crescent, 0% of the Moon is Illuminated
Mar 11
Waning Crescent
Mar 11
New
Mar 19
First Quarter
Mar 27
Full
Apr 3
Last Quarter

Hourly Weather History & Observations

Time (EDT) Temp. Windchill Dew Point Humidity Pressure Visibility Wind Dir Wind Speed Gust Speed Precip Events Conditions
12:54 AM 42.8 °F - 37.4 °F 81% 30.28 in 5.0 mi Calm Calm - N/A   Clear
1:51 AM 42.8 °F - 37.4 °F 81% 30.28 in 1.5 mi Calm Calm - N/A   Haze
1:54 AM 41.0 °F - 36.0 °F 82% 30.28 in 0.8 mi Calm Calm - N/A   Haze
2:10 AM 39.2 °F - 35.6 °F 87% 30.27 in 1.8 mi Calm Calm - N/A   Scattered Clouds
2:54 AM 41.0 °F - 36.0 °F 82% 30.26 in 1.8 mi Calm Calm - N/A   Haze
3:11 AM 39.2 °F 37.0 °F 35.6 °F 87% 30.25 in 3.0 mi ESE 3.5 mph - N/A   Haze
3:54 AM 39.0 °F - 35.1 °F 86% 30.23 in 4.0 mi Calm Calm - N/A   Clear
4:20 AM 41.0 °F - 37.4 °F 87% 30.22 in 1.8 mi Calm Calm - N/A   Clear
4:30 AM 42.8 °F 40.1 °F 37.4 °F 81% 30.21 in 3.0 mi SE 4.6 mph - N/A   Haze
4:54 AM 42.1 °F - 37.9 °F 85% 30.21 in 7.0 mi Calm Calm - N/A   Clear
5:17 AM 37.4 °F - 35.6 °F 93% 30.21 in 1.5 mi Calm Calm - N/A   Partly Cloudy
5:20 AM 37.4 °F - 33.8 °F 87% 30.21 in 0.8 mi Calm Calm - N/A   Mist
5:31 AM 39.2 °F - 33.8 °F 81% 30.21 in 1.2 mi Calm Calm - N/A   Haze
5:34 AM 39.2 °F - 33.8 °F 81% 30.21 in 0.8 mi Calm Calm - N/A   Haze
5:54 AM 39.0 °F - 35.1 °F 86% 30.21 in 0.5 mi Calm Calm - N/A Fog Fog
6:03 AM 37.4 °F - 33.8 °F 87% 30.21 in 0.2 mi Calm Calm - N/A   Haze
6:12 AM 39.2 °F - 35.6 °F 87% 30.21 in 1.0 mi Calm Calm - N/A   Mist
6:19 AM 37.4 °F - 35.6 °F 93% 30.21 in 0.5 mi Calm Calm - N/A Fog Fog
6:54 AM 37.9 °F - 35.1 °F 89% 30.21 in 0.2 mi Calm Calm - N/A Fog Fog
7:03 AM 35.6 °F - 33.8 °F 93% 30.20 in 5.0 mi Calm Calm - N/A   Unknown
7:54 AM 41.0 °F 39.0 °F 37.0 °F 86% 30.20 in 5.0 mi ESE 3.5 mph - N/A   Unknown
8:01 AM 41.0 °F 39.0 °F 37.4 °F 87% 30.20 in 6.0 mi ESE 3.5 mph - N/A   Clear
8:54 AM 48.9 °F - 44.1 °F 83% 30.22 in 6.0 mi South 4.6 mph - N/A   Clear
9:54 AM 55.0 °F - 46.0 °F 72% 30.20 in 10.0 mi South 6.9 mph - N/A   Clear
10:54 AM 60.1 °F - 46.9 °F 62% 30.19 in 10.0 mi SSE 9.2 mph - N/A   Clear
11:54 AM 64.0 °F - 48.0 °F 56% 30.17 in 10.0 mi SSE 13.8 mph - N/A   Clear
12:54 PM 66.0 °F - 48.0 °F 52% 30.15 in 10.0 mi South 10.4 mph - N/A   Clear
1:54 PM 69.1 °F - 46.9 °F 45% 30.12 in 10.0 mi South 12.7 mph 19.6 mph N/A   Clear
2:54 PM 69.1 °F - 46.9 °F 45% 30.09 in 10.0 mi SSW 12.7 mph - N/A   Clear
3:54 PM 69.1 °F - 46.0 °F 44% 30.08 in 10.0 mi South 13.8 mph - N/A   Mostly Cloudy
4:54 PM 68.0 °F - 46.9 °F 47% 30.04 in 10.0 mi SSE 15.0 mph 20.7 mph N/A   Mostly Cloudy
5:54 PM 66.0 °F - 46.9 °F 50% 30.03 in 10.0 mi SE 10.4 mph 23.0 mph N/A   Mostly Cloudy
6:54 PM 64.9 °F - 46.0 °F 50% 30.05 in 10.0 mi SSE 13.8 mph 21.9 mph N/A   Mostly Cloudy
7:54 PM 63.0 °F - 46.0 °F 54% 30.04 in 10.0 mi SSE 12.7 mph - N/A   Clear
8:54 PM 61.0 °F - 45.0 °F 56% 30.01 in 10.0 mi SSE 12.7 mph 20.7 mph N/A   Clear
9:54 PM 61.0 °F - 45.0 °F 56% 30.03 in 10.0 mi SSE 11.5 mph 19.6 mph N/A   Clear
10:54 PM 60.1 °F - 46.0 °F 60% 30.03 in 10.0 mi SSE 8.1 mph - N/A   Scattered Clouds
11:54 PM 61.0 °F - 46.9 °F 60% 30.02 in 10.0 mi South 9.2 mph - N/A   Overcast